Location: Nag� el Ma?a??a
(24.0667°N, 32.8833°E)
Time: 21:41:48
(UTC+00:00)

FALCON 9 DEB - Visible Passes

Search period start: 21 January 2022 00:00
Search period end: 31 January 2022 00:00
Orbit: 413 x 425 km, 53.0° (Epoch: 21 January)

Date Brightness Start Highest point End Pass type
(mag) Time Alt. Az. Time Alt. Az. Time Alt. Az.
24 Jan 4.9 03:59:26 10° SSW 04:02:33 35° SE 04:05:39 10° ENE visible
25 Jan 6.2 03:12:58 10° SSE 03:15:14 17° ESE 03:17:30 10° E visible
26 Jan 3.4 04:01:00 10° WSW 04:04:15 45° NW 04:07:29 10° NNE visible
27 Jan 3.1 03:14:37 20° SSW 03:16:48 78° SE 03:20:10 10° NE visible
28 Jan 5.5 02:30:56 22° ENE 02:30:56 22° ENE 02:32:29 10° ENE visible
28 Jan 5.1 04:04:32 10° WNW 04:06:07 13° NW 04:07:43 10° NNW visible
29 Jan 4.8 03:19:42 19° NNW 03:19:42 19° NNW 03:21:18 10° N visible
